TimeEST,TemperatureF,Dew PointF,Humidity,Sea Level PressureIn,VisibilityMPH,Wind Direction,Wind SpeedMPH,Gust SpeedMPH,PrecipitationIn,Events,Conditions,WindDirDegrees,DateUTC
12:53 AM,30.0,21.9,72,30.15,10.0,Calm,Calm,-,N/A,,Clear,0,2012-11-25 05:53:00
1:53 AM,30.0,21.0,69,30.14,10.0,Calm,Calm,-,N/A,,Clear,0,2012-11-25 06:53:00
2:53 AM,28.9,21.0,72,30.14,10.0,Calm,Calm,-,N/A,,Clear,0,2012-11-25 07:53:00
3:53 AM,28.0,21.0,75,30.12,10.0,South,4.6,-,N/A,,Clear,170,2012-11-25 08:53:00
4:53 AM,28.9,21.0,72,30.12,10.0,South,5.8,-,N/A,,Clear,180,2012-11-25 09:53:00
5:53 AM,28.9,21.0,72,30.12,10.0,South,4.6,-,N/A,,Clear,190,2012-11-25 10:53:00
6:53 AM,30.0,21.0,69,30.10,10.0,South,6.9,-,N/A,,Clear,180,2012-11-25 11:53:00
7:53 AM,30.9,21.9,69,30.09,10.0,South,9.2,-,N/A,,Clear,180,2012-11-25 12:53:00
8:53 AM,32.0,23.0,69,30.07,10.0,South,6.9,-,N/A,,Clear,180,2012-11-25 13:53:00
9:53 AM,37.0,24.1,59,30.06,10.0,South,9.2,-,N/A,,Clear,180,2012-11-25 14:53:00
10:53 AM,42.1,21.9,45,30.04,10.0,SSW,13.8,19.6,N/A,,Clear,210,2012-11-25 15:53:00
11:53 AM,48.0,21.0,34,30.02,10.0,SW,16.1,23.0,N/A,,Clear,230,2012-11-25 16:53:00
12:53 PM,48.9,23.0,36,29.99,10.0,SW,10.4,-,N/A,,Clear,220,2012-11-25 17:53:00
1:53 PM,51.1,23.0,33,29.96,10.0,WSW,12.7,19.6,N/A,,Clear,240,2012-11-25 18:53:00
2:53 PM,53.1,24.1,32,29.95,10.0,SSW,11.5,18.4,N/A,,Clear,210,2012-11-25 19:53:00
3:53 PM,53.1,24.1,32,29.93,10.0,SSW,8.1,-,N/A,,Clear,210,2012-11-25 20:53:00
4:53 PM,53.1,25.0,34,29.96,10.0,WSW,3.5,-,N/A,,Clear,250,2012-11-25 21:53:00
5:53 PM,51.1,25.0,36,29.98,10.0,Calm,Calm,-,N/A,,Clear,0,2012-11-25 22:53:00
6:53 PM,52.0,24.1,34,29.99,10.0,Calm,Calm,-,N/A,,Clear,0,2012-11-25 23:53:00
7:53 PM,48.9,24.1,38,30.01,10.0,South,3.5,-,N/A,,Clear,180,2012-11-26 00:53:00
8:53 PM,46.0,26.1,46,30.02,10.0,Calm,Calm,-,N/A,,Clear,0,2012-11-26 01:53:00
9:53 PM,45.0,27.0,49,30.04,10.0,Calm,Calm,-,N/A,,Clear,0,2012-11-26 02:53:00
10:53 PM,42.1,26.1,53,30.05,10.0,Calm,Calm,-,N/A,,Clear,0,2012-11-26 03:53:00
11:53 PM,39.0,27.0,62,30.06,10.0,Calm,Calm,-,N/A,,Clear,0,2012-11-26 04:53:00